Check out our new BloomSky Weather System.

Active alerts

Houston, TX
  Details for Houston, TX River Flood Warning  +1 additional alert
Fort Bend, TX
  Details for Fort Bend, TX River Flood Warning  +1 additional alert


Thunder radar  blitzortung!


Rain radar more information rain snow radar


Visit our other weather sites:

Template documentation
and downloads

And another site



Weather Underground History page Text

Daily Summary for February 16, 2017 Units:  English    Metric   Both
« Previous Day
Next Day »
Daily Weekly Monthly Yearly Custom
  High: Low: Average:
Temperature: TemperatureF °F 37.6 °F 53.8 °F
Dew Point: DewpointF °F 34.0 °F 38.6 °F
Humidity: Humidity % 28 % 62 %
Wind Speed: WindSpeedMPH mph 0.0 mph 0.9 mph
Wind Gust: WindSpeedGustMPH mph - -
Wind:- - South
Pressure: PressureIn in 30.01 in -
Precipitation: 0.00 in    
Historical Graphs
 
 
Tabular Data for February 16, 2017
Time Temperature Dew Point Pressure Wind Wind Speed Wind Gust Humidity Rainfall Rate (Hourly)
TemperatureF °F DewpointF °F PressureIn in Calm     Humidity % HourlyPrecipIn in
00:03 45.7 °F 37.9 °F 30.14 in Calm   1.0 mph 74 % 0.00 in
00:08 45.7 °F 37.6 °F 30.14 in Calm   1.0 mph 73 % 0.00 in
00:13 45.3 °F 37.2 °F 30.14 in Calm   1.0 mph 73 % 0.00 in
00:18 45.1 °F 37.4 °F 30.15 in Calm   1.0 mph 74 % 0.00 in
00:23 44.8 °F 37.4 °F 30.15 in Calm   1.0 mph 75 % 0.00 in
00:28 44.4 °F 37.0 °F 30.15 in Calm   1.0 mph 75 % 0.00 in
00:33 44.4 °F 37.4 °F 30.15 in Calm     76 % 0.00 in
00:38 44.2 °F 37.2 °F 30.16 in Calm   1.0 mph 76 % 0.00 in
00:43 44.1 °F 37.4 °F 30.16 in Calm   1.0 mph 77 % 0.00 in
00:48 44.1 °F 37.6 °F 30.16 in Calm   1.0 mph 78 % 0.00 in
00:53 43.9 °F 37.4 °F 30.16 in Calm     78 % 0.00 in
00:58 43.9 °F 37.8 °F 30.16 in Calm     79 % 0.00 in
01:03 43.7 °F 37.9 °F 30.16 in Calm     80 % 0.00 in
01:08 43.5 °F 38.1 °F 30.16 in Calm     81 % 0.00 in
01:13 43.3 °F 37.9 °F 30.17 in Calm     81 % 0.00 in
01:18 43.3 °F 38.3 °F 30.16 in Calm     82 % 0.00 in
01:28 43.0 °F 37.9 °F 30.17 in Calm     82 % 0.00 in
01:33 42.8 °F 37.9 °F 30.16 in Calm     83 % 0.00 in
01:38 42.6 °F 37.8 °F 30.17 in Calm     83 % 0.00 in
01:43 42.3 °F 37.4 °F 30.16 in Calm     83 % 0.00 in
01:48 42.3 °F 38.1 °F 30.16 in Calm     85 % 0.00 in
01:53 42.3 °F 38.1 °F 30.16 in Calm     85 % 0.00 in
01:58 42.1 °F 37.9 °F 30.16 in Calm     85 % 0.00 in
02:03 41.7 °F 37.8 °F 30.16 in Calm     86 % 0.00 in
02:08 41.5 °F 37.6 °F 30.15 in Calm     86 % 0.00 in
02:13 41.5 °F 37.9 °F 30.15 in Calm     87 % 0.00 in
02:18 41.7 °F 38.1 °F 30.15 in Calm     87 % 0.00 in
02:23 41.5 °F 37.9 °F 30.15 in Calm     87 % 0.00 in
02:28 41.5 °F 38.3 °F 30.15 in Calm     88 % 0.00 in
02:33 41.4 °F 38.1 °F 30.15 in Calm     88 % 0.00 in
02:38 41.2 °F 37.9 °F 30.15 in Calm     88 % 0.00 in
02:44 40.8 °F 37.8 °F 30.15 in Calm     89 % 0.00 in
02:49 40.8 °F 37.8 °F 30.15 in Calm     89 % 0.00 in
02:54 40.8 °F 37.8 °F 30.15 in Calm     89 % 0.00 in
02:59 40.6 °F 37.6 °F 30.15 in Calm     89 % 0.00 in
03:04 40.6 °F 37.9 °F 30.15 in Calm     90 % 0.00 in
03:09 40.8 °F 38.1 °F 30.15 in Calm     90 % 0.00 in
03:14 40.8 °F 38.1 °F 30.15 in Calm     90 % 0.00 in
03:19 40.6 °F 37.9 °F 30.14 in Calm     90 % 0.00 in
03:24 40.5 °F 37.8 °F 30.14 in Calm     90 % 0.00 in
03:29 40.3 °F 37.6 °F 30.14 in Calm     90 % 0.00 in
03:34 39.9 °F 37.2 °F 30.14 in Calm     90 % 0.00 in
03:39 39.9 °F 37.6 °F 30.14 in Calm     91 % 0.00 in
03:44 39.9 °F 37.8 °F 30.14 in Calm     92 % 0.00 in
03:49 39.9 °F 37.8 °F 30.14 in Calm     92 % 0.00 in
03:54 39.9 °F 37.8 °F 30.14 in Calm   1.0 mph 92 % 0.00 in
03:59 39.9 °F 37.8 °F 30.13 in Calm   1.0 mph 92 % 0.00 in
04:04 40.1 °F 37.9 °F 30.13 in Calm   1.0 mph 92 % 0.00 in
04:09 40.1 °F 37.9 °F 30.13 in Calm   1.0 mph 92 % 0.00 in
04:14 39.7 °F 37.4 °F 30.13 in Calm   1.0 mph 91 % 0.00 in
04:19 39.4 °F 37.2 °F 30.13 in Calm   1.0 mph 92 % 0.00 in
04:24 39.4 °F 37.2 °F 30.13 in Calm     92 % 0.00 in
04:29 39.0 °F 36.9 °F 30.13 in Calm     92 % 0.00 in
04:34 38.8 °F 36.7 °F 30.13 in Calm     92 % 0.00 in
04:39 38.8 °F 37.0 °F 30.13 in Calm     93 % 0.00 in
04:44 38.7 °F 36.9 °F 30.13 in Calm     93 % 0.00 in
04:49 38.8 °F 37.0 °F 30.13 in Calm     93 % 0.00 in
04:54 38.8 °F 37.0 °F 30.13 in Calm     93 % 0.00 in
04:59 38.7 °F 36.9 °F 30.13 in Calm     93 % 0.00 in
05:04 38.5 °F 36.9 °F 30.13 in Calm     94 % 0.00 in
05:09 38.5 °F 36.9 °F 30.13 in Calm     94 % 0.00 in
05:14 38.8 °F 37.2 °F 30.13 in WNW 1.0 mph   94 % 0.00 in
05:19 39.0 °F 37.4 °F 30.13 in Calm   1.0 mph 94 % 0.00 in
05:24 39.0 °F 37.4 °F 30.13 in Calm   1.0 mph 94 % 0.00 in
05:29 39.0 °F 37.2 °F 30.13 in Calm   1.0 mph 93 % 0.00 in
05:34 38.8 °F 37.2 °F 30.13 in Calm   1.0 mph 94 % 0.00 in
05:39 38.8 °F 37.2 °F 30.13 in Calm     94 % 0.00 in
05:44 38.8 °F 37.2 °F 30.13 in Calm     94 % 0.00 in
05:49 38.7 °F 37.0 °F 30.13 in Calm     94 % 0.00 in
05:54 38.5 °F 36.9 °F 30.14 in Calm     94 % 0.00 in
05:59 38.5 °F 36.9 °F 30.14 in Calm     94 % 0.00 in
06:04 38.3 °F 36.7 °F 30.14 in Calm     94 % 0.00 in
06:09 38.1 °F 36.5 °F 30.14 in Calm     94 % 0.00 in
06:14 37.9 °F 36.3 °F 30.14 in Calm     94 % 0.00 in
06:19 37.6 °F 36.0 °F 30.14 in Calm     94 % 0.00 in
06:24 37.6 °F 36.0 °F 30.14 in Calm     94 % 0.00 in
06:29 37.6 °F 36.0 °F 30.14 in Calm     94 % 0.00 in
06:34 37.6 °F 36.3 °F 30.14 in Calm     95 % 0.00 in
06:39 37.8 °F 36.5 °F 30.14 in Calm     95 % 0.00 in
06:44 37.9 °F 36.7 °F 30.14 in Calm     95 % 0.00 in
06:49 38.1 °F 36.9 °F 30.15 in Calm     95 % 0.00 in
06:54 38.1 °F 36.9 °F 30.15 in Calm     95 % 0.00 in
06:59 38.5 °F 37.2 °F 30.16 in Calm     95 % 0.00 in
07:04 38.3 °F 36.7 °F 30.16 in Calm     94 % 0.00 in
07:09 38.3 °F 37.0 °F 30.16 in Calm     95 % 0.00 in
07:14 38.3 °F 37.0 °F 30.15 in Calm     95 % 0.00 in
07:20 38.5 °F 37.2 °F 30.16 in Calm     95 % 0.00 in
07:25 38.7 °F 37.4 °F 30.15 in Calm     95 % 0.00 in
07:30 38.5 °F 36.9 °F 30.15 in Calm     94 % 0.00 in
07:35 38.5 °F 37.2 °F 30.15 in Calm     95 % 0.00 in
07:40 38.7 °F 37.4 °F 30.15 in Calm     95 % 0.00 in
07:45 39.0 °F 37.8 °F 30.16 in Calm     95 % 0.00 in
07:50 39.2 °F 37.9 °F 30.16 in Calm     95 % 0.00 in
07:55 39.7 °F 38.5 °F 30.16 in Calm     95 % 0.00 in
08:00 40.6 °F 39.6 °F 30.16 in Calm     96 % 0.00 in
08:05 42.1 °F 41.0 °F 30.16 in Calm     96 % 0.00 in
08:10 43.0 °F 41.9 °F 30.16 in Calm   1.0 mph 96 % 0.00 in
08:15 44.4 °F 43.3 °F 30.16 in Calm   1.0 mph 96 % 0.00 in
08:20 45.7 °F 44.4 °F 30.16 in Calm   1.0 mph 95 % 0.00 in
08:25 46.9 °F 45.5 °F 30.16 in Calm   1.0 mph 95 % 0.00 in
08:30 47.7 °F 45.1 °F 30.16 in Calm   1.0 mph 91 % 0.00 in
08:35 47.7 °F 44.2 °F 30.16 in Calm   1.0 mph 88 % 0.00 in
08:40 48.4 °F 45.0 °F 30.16 in Calm   1.0 mph 88 % 0.00 in
08:46 49.6 °F 45.7 °F 30.16 in Calm   1.0 mph 86 % 0.00 in
08:51 51.3 °F 46.2 °F 30.16 in Calm   1.0 mph 83 % 0.00 in
08:56 52.2 °F 45.1 °F 30.17 in Calm   1.0 mph 77 % 0.00 in
09:01 53.4 °F 46.4 °F 30.17 in Calm   1.0 mph 77 % 0.00 in
09:06 54.1 °F 45.3 °F 30.17 in Calm   1.0 mph 72 % 0.00 in
09:11 54.9 °F 46.0 °F 30.17 in SSW 1.0 mph 1.0 mph 72 % 0.00 in
09:16 55.8 °F 45.3 °F 30.17 in SW 1.0 mph 1.0 mph 68 % 0.00 in
09:21 56.5 °F 44.1 °F 30.17 in SE 1.0 mph 2.0 mph 63 % 0.00 in
09:26 57.0 °F 44.1 °F 30.17 in East 1.0 mph 2.0 mph 62 % 0.00 in
09:31 57.4 °F 45.3 °F 30.17 in Calm   2.0 mph 64 % 0.00 in
09:36 57.7 °F 43.5 °F 30.17 in SSW 3.0 mph 3.0 mph 59 % 0.00 in
09:41 57.6 °F 42.4 °F 30.17 in Calm   4.0 mph 57 % 0.00 in
09:46 57.9 °F 42.8 °F 30.17 in Calm   4.0 mph 57 % 0.00 in
09:51 58.8 °F 42.3 °F 30.17 in South 2.0 mph 4.0 mph 54 % 0.00 in
10:01 59.5 °F 41.4 °F 30.16 in SW 4.0 mph 4.0 mph 51 % 0.00 in
10:06 59.5 °F 38.7 °F 30.16 in ESE 1.0 mph 5.0 mph 46 % 0.00 in
10:11 59.9 °F 40.1 °F 30.16 in Calm   5.0 mph 48 % 0.00 in
10:16 60.3 °F 39.4 °F 30.16 in SSW 1.0 mph 5.0 mph 46 % 0.00 in
10:21 60.4 °F 37.8 °F 30.16 in SE 3.0 mph 4.0 mph 43 % 0.00 in
10:26 60.4 °F 37.8 °F 30.16 in Calm   4.0 mph 43 % 0.00 in
10:31 61.2 °F 39.7 °F 30.15 in Calm   5.0 mph 45 % 0.00 in
10:36 62.1 °F 38.7 °F 30.15 in SSE 1.0 mph 5.0 mph 42 % 0.00 in
10:41 62.1 °F 38.1 °F 30.14 in WNW 3.0 mph 5.0 mph 41 % 0.00 in
10:46 61.9 °F 36.7 °F 30.14 in Calm   5.0 mph 39 % 0.00 in
10:51 61.5 °F 37.6 °F 30.14 in SW 1.0 mph 5.0 mph 41 % 0.00 in
10:56 62.2 °F 38.3 °F 30.14 in SSE 2.0 mph 4.0 mph 41 % 0.00 in
11:02 63.1 °F 37.8 °F 30.14 in SW 1.0 mph 4.0 mph 39 % 0.00 in
11:07 63.5 °F 38.7 °F 30.14 in SSE 1.0 mph 4.0 mph 40 % 0.00 in
11:12 63.9 °F 39.7 °F 30.14 in SSW 4.0 mph 4.0 mph 41 % 0.00 in
11:17 63.5 °F 37.4 °F 30.14 in SSE 1.0 mph 5.0 mph 38 % 0.00 in
11:22 63.1 °F 37.0 °F 30.13 in ESE 2.0 mph 5.0 mph 38 % 0.00 in
11:27 62.4 °F 36.5 °F 30.13 in NNW 1.0 mph 5.0 mph 38 % 0.00 in
11:32 62.8 °F 38.1 °F 30.13 in Calm   4.0 mph 40 % 0.00 in
11:37 63.7 °F 39.6 °F 30.13 in NNW 1.0 mph 4.0 mph 41 % 0.00 in
11:42 64.0 °F 36.5 °F 30.13 in ESE 4.0 mph 5.0 mph 36 % 0.00 in
11:47 63.5 °F 36.7 °F 30.12 in SE 2.0 mph 8.0 mph 37 % 0.00 in
11:52 63.9 °F 37.8 °F 30.12 in SSW 5.0 mph 8.0 mph 38 % 0.00 in
11:57 63.9 °F 35.6 °F 30.12 in SW 2.0 mph 8.0 mph 35 % 0.00 in
12:02 63.9 °F 35.6 °F 30.12 in ESE 3.0 mph 7.0 mph 35 % 0.00 in
12:07 63.7 °F 36.1 °F 30.12 in ESE 2.0 mph 7.0 mph 36 % 0.00 in
12:12 63.9 °F 36.3 °F 30.12 in SSE 2.0 mph 8.0 mph 36 % 0.00 in
12:17 64.2 °F 36.7 °F 30.11 in SE 3.0 mph 8.0 mph 36 % 0.00 in
12:22 63.9 °F 36.3 °F 30.12 in SSE 5.0 mph 8.0 mph 36 % 0.00 in
12:27 64.2 °F 38.1 °F 30.11 in South 6.0 mph 8.0 mph 38 % 0.00 in
12:32 64.9 °F 38.1 °F 30.12 in SW 4.0 mph 7.0 mph 37 % 0.00 in
12:37 65.7 °F 35.1 °F 30.12 in WNW 1.0 mph 7.0 mph 32 % 0.00 in
12:42 65.5 °F 36.3 °F 30.11 in SE 5.0 mph 8.0 mph 34 % 0.00 in
12:47 65.3 °F 38.3 °F 30.11 in SW 1.0 mph 10.0 mph 37 % 0.00 in
12:52 65.7 °F 36.5 °F 30.10 in ESE 3.0 mph 10.0 mph 34 % 0.00 in
12:57 65.1 °F 36.1 °F 30.09 in SSE 3.0 mph 10.0 mph 34 % 0.00 in
13:02 65.3 °F 37.6 °F 30.09 in South 1.0 mph 7.0 mph 36 % 0.00 in
13:07 66.0 °F 39.0 °F 30.08 in South 4.0 mph 7.0 mph 37 % 0.00 in
13:12 66.7 °F 38.3 °F 30.08 in SW 3.0 mph 6.0 mph 35 % 0.00 in
13:17 67.1 °F 37.8 °F 30.08 in WSW 1.0 mph 7.0 mph 34 % 0.00 in
13:22 66.6 °F 35.1 °F 30.08 in NNW 2.0 mph 7.0 mph 31 % 0.00 in
13:23 66.4 °F 35.6 °F 30.08 in NW 4.0 mph 7.0 mph 32 % 0.00 in
13:28 65.8 °F 36.0 °F 30.08 in WSW 2.0 mph 7.0 mph 33 % 0.00 in
13:33 66.4 °F 36.3 °F 30.07 in Calm   6.0 mph 33 % 0.00 in
13:38 66.9 °F 36.9 °F 30.07 in SW 6.0 mph 6.0 mph 33 % 0.00 in
13:43 66.9 °F 36.1 °F 30.07 in WNW 1.0 mph 8.0 mph 32 % 0.00 in
13:49 67.1 °F 35.4 °F 30.06 in East 1.0 mph 8.0 mph 31 % 0.00 in
13:54 67.5 °F 37.4 °F 30.06 in WNW 2.0 mph 8.0 mph 33 % 0.00 in
13:59 67.5 °F 37.4 °F 30.06 in SW 3.0 mph 6.0 mph 33 % 0.00 in
14:04 67.3 °F 34.7 °F 30.06 in SW 1.0 mph 7.0 mph 30 % 0.00 in
14:09 67.5 °F 34.9 °F 30.05 in ESE 2.0 mph 7.0 mph 30 % 0.00 in
14:14 67.3 °F 34.0 °F 30.05 in ESE 2.0 mph 8.0 mph 29 % 0.00 in
14:19 67.5 °F 35.8 °F 30.05 in WSW 1.0 mph 8.0 mph 31 % 0.00 in
14:24 67.5 °F 34.2 °F 30.05 in ESE 2.0 mph 8.0 mph 29 % 0.00 in
14:29 67.3 °F 36.5 °F 30.05 in SSE 2.0 mph 8.0 mph 32 % 0.00 in
14:34 67.6 °F 38.3 °F 30.05 in WSW 2.0 mph 7.0 mph 34 % 0.00 in
14:39 68.0 °F 35.4 °F 30.04 in WNW 1.0 mph 5.0 mph 30 % 0.00 in
14:44 67.6 °F 34.2 °F 30.04 in WNW 2.0 mph 5.0 mph 29 % 0.00 in
14:49 66.9 °F 34.5 °F 30.04 in WNW 1.0 mph 5.0 mph 30 % 0.00 in
14:54 67.3 °F 37.2 °F 30.04 in SE 2.0 mph 4.0 mph 33 % 0.00 in
14:59 67.6 °F 35.1 °F 30.04 in SE 3.0 mph 5.0 mph 30 % 0.00 in
15:04 67.5 °F 34.9 °F 30.03 in Calm   5.0 mph 30 % 0.00 in
15:09 68.2 °F 36.3 °F 30.04 in SSE 1.0 mph 5.0 mph 31 % 0.00 in
15:14 68.4 °F 34.9 °F 30.03 in Calm   3.0 mph 29 % 0.00 in
15:24 68.5 °F 36.7 °F 30.03 in Calm   4.0 mph 31 % 0.00 in
15:29 68.5 °F 34.2 °F 30.03 in Calm   4.0 mph 28 % 0.00 in
15:34 68.4 °F 38.1 °F 30.02 in SW 4.0 mph 4.0 mph 33 % 0.00 in
15:39 68.7 °F 36.0 °F 30.02 in SSW 3.0 mph 4.0 mph 30 % 0.00 in
15:44 68.5 °F 36.7 °F 30.02 in Calm   4.0 mph 31 % 0.00 in
15:49 68.7 °F 36.9 °F 30.02 in NE 1.0 mph 5.0 mph 31 % 0.00 in
15:54 69.3 °F 37.4 °F 30.03 in Calm   5.0 mph 31 % 0.00 in
15:59 69.6 °F 37.6 °F 30.03 in SE 2.0 mph 5.0 mph 31 % 0.00 in
16:04 69.3 °F 34.7 °F 30.03 in SSE 4.0 mph 4.0 mph 28 % 0.00 in
16:09 68.4 °F 35.8 °F 30.02 in East 1.0 mph 6.0 mph 30 % 0.00 in
16:19 67.8 °F 36.1 °F 30.02 in SSE 6.0 mph 6.0 mph 31 % 0.00 in
16:24 67.8 °F 35.2 °F 30.02 in South 1.0 mph 7.0 mph 30 % 0.00 in
16:29 67.8 °F 35.2 °F 30.01 in Calm   7.0 mph 30 % 0.00 in
16:34 68.2 °F 36.3 °F 30.02 in SSW 3.0 mph 7.0 mph 31 % 0.00 in
16:39 67.8 °F 35.2 °F 30.02 in SSW 3.0 mph 7.0 mph 30 % 0.00 in
16:44 67.5 °F 35.8 °F 30.01 in SE 2.0 mph 7.0 mph 31 % 0.00 in
16:49 67.5 °F 34.9 °F 30.01 in Calm   7.0 mph 30 % 0.00 in
16:54 67.5 °F 34.9 °F 30.01 in Calm   6.0 mph 30 % 0.00 in
16:59 67.6 °F 36.0 °F 30.01 in SSW 1.0 mph 6.0 mph 31 % 0.00 in
17:04 67.3 °F 36.5 °F 30.01 in South 3.0 mph 6.0 mph 32 % 0.00 in
17:10 66.9 °F 36.9 °F 30.01 in SSW 2.0 mph 5.0 mph 33 % 0.00 in
17:15 66.7 °F 36.7 °F 30.01 in SSE 1.0 mph 5.0 mph 33 % 0.00 in
17:20 66.6 °F 35.8 °F 30.01 in South 1.0 mph 5.0 mph 32 % 0.00 in
17:25 66.4 °F 34.9 °F 30.02 in SSW 3.0 mph 6.0 mph 31 % 0.00 in
17:30 66.0 °F 35.2 °F 30.02 in ESE 4.0 mph 6.0 mph 32 % 0.00 in
17:35 65.8 °F 35.2 °F 30.02 in South 2.0 mph 6.0 mph 32 % 0.00 in
17:40 65.7 °F 35.8 °F 30.01 in South 2.0 mph 6.0 mph 33 % 0.00 in
17:50 64.9 °F 35.1 °F 30.01 in SSW 2.0 mph 3.0 mph 33 % 0.00 in
17:55 64.4 °F 34.7 °F 30.01 in Calm   2.0 mph 33 % 0.00 in
18:00 64.0 °F 35.1 °F 30.02 in Calm   2.0 mph 34 % 0.00 in
18:05 63.7 °F 35.6 °F 30.02 in South 2.0 mph 2.0 mph 35 % 0.00 in
18:10 63.3 °F 35.2 °F 30.02 in SSE 1.0 mph 2.0 mph 35 % 0.00 in
18:15 63.0 °F 35.6 °F 30.02 in South 1.0 mph 2.0 mph 36 % 0.00 in
18:20 62.6 °F 36.0 °F 30.02 in South 1.0 mph 2.0 mph 37 % 0.00 in
18:25 62.2 °F 36.3 °F 30.03 in SSE 1.0 mph 2.0 mph 38 % 0.00 in
18:30 61.9 °F 36.0 °F 30.03 in South 1.0 mph 2.0 mph 38 % 0.00 in
18:35 61.5 °F 36.3 °F 30.03 in South 1.0 mph 2.0 mph 39 % 0.00 in
18:40 61.3 °F 36.1 °F 30.03 in South 1.0 mph 2.0 mph 39 % 0.00 in
18:45 61.2 °F 36.0 °F 30.03 in Calm   2.0 mph 39 % 0.00 in
18:50 60.8 °F 36.3 °F 30.02 in SSE 2.0 mph 2.0 mph 40 % 0.00 in
18:55 60.6 °F 36.1 °F 30.02 in Calm   2.0 mph 40 % 0.00 in
19:00 60.4 °F 36.7 °F 30.02 in Calm   2.0 mph 41 % 0.00 in
19:05 60.1 °F 36.3 °F 30.02 in SSE 1.0 mph 2.0 mph 41 % 0.00 in
19:10 59.7 °F 36.0 °F 30.03 in Calm   1.0 mph 41 % 0.00 in
19:15 59.2 °F 36.1 °F 30.03 in Calm   1.0 mph 42 % 0.00 in
19:20 58.6 °F 36.9 °F 30.03 in Calm   1.0 mph 44 % 0.00 in
19:25 58.3 °F 36.5 °F 30.03 in Calm     44 % 0.00 in
19:30 57.9 °F 36.7 °F 30.03 in Calm     45 % 0.00 in
19:35 57.9 °F 37.8 °F 30.03 in East 1.0 mph 2.0 mph 47 % 0.00 in
19:40 58.3 °F 37.6 °F 30.03 in ESE 1.0 mph 2.0 mph 46 % 0.00 in
19:45 58.6 °F 38.5 °F 30.04 in SE 1.0 mph 3.0 mph 47 % 0.00 in
19:50 58.6 °F 39.0 °F 30.03 in Calm   3.0 mph 48 % 0.00 in
19:55 58.3 °F 39.7 °F 30.04 in ESE 1.0 mph 3.0 mph 50 % 0.00 in
20:00 58.5 °F 40.5 °F 30.04 in SE 2.0 mph 3.0 mph 51 % 0.00 in
20:05 58.6 °F 41.5 °F 30.04 in Calm   3.0 mph 53 % 0.00 in
20:11 58.5 °F 41.9 °F 30.04 in Calm   3.0 mph 54 % 0.00 in
20:16 57.9 °F 41.9 °F 30.04 in South 1.0 mph 3.0 mph 55 % 0.00 in
20:21 57.7 °F 43.0 °F 30.04 in SSE 2.0 mph 4.0 mph 58 % 0.00 in
20:26 58.1 °F 43.3 °F 30.04 in SSE 1.0 mph 6.0 mph 58 % 0.00 in
20:31 57.9 °F 43.7 °F 30.04 in SE 3.0 mph 6.0 mph 59 % 0.00 in
20:36 57.9 °F 43.7 °F 30.04 in SE 2.0 mph 6.0 mph 59 % 0.00 in
20:41 57.9 °F 44.1 °F 30.04 in South 4.0 mph 6.0 mph 60 % 0.00 in
20:46 57.9 °F 44.1 °F 30.04 in South 4.0 mph 6.0 mph 60 % 0.00 in
20:51 57.7 °F 44.4 °F 30.04 in SSW 2.0 mph 6.0 mph 61 % 0.00 in
20:56 57.6 °F 44.2 °F 30.04 in South 2.0 mph 5.0 mph 61 % 0.00 in
21:01 57.6 °F 44.2 °F 30.04 in SW 1.0 mph 5.0 mph 61 % 0.00 in
21:06 57.4 °F 44.4 °F 30.04 in SSW 2.0 mph 5.0 mph 62 % 0.00 in
21:11 57.2 °F 44.2 °F 30.04 in SE 1.0 mph 3.0 mph 62 % 0.00 in
21:16 57.0 °F 44.1 °F 30.04 in Calm   3.0 mph 62 % 0.00 in
21:21 56.8 °F 44.4 °F 30.04 in South 1.0 mph 3.0 mph 63 % 0.00 in
21:26 56.7 °F 44.2 °F 30.04 in SE 2.0 mph 3.0 mph 63 % 0.00 in
21:31 56.5 °F 44.4 °F 30.04 in SSE 1.0 mph 2.0 mph 64 % 0.00 in
21:36 56.5 °F 44.8 °F 30.04 in SE 1.0 mph 2.0 mph 65 % 0.00 in
21:41 56.1 °F 44.6 °F 30.04 in SE 1.0 mph 2.0 mph 65 % 0.00 in
21:46 55.9 °F 44.4 °F 30.04 in Calm   2.0 mph 65 % 0.00 in
21:51 55.8 °F 44.6 °F 30.04 in South 1.0 mph 2.0 mph 66 % 0.00 in
21:56 55.6 °F 44.4 °F 30.04 in South 1.0 mph 2.0 mph 66 % 0.00 in
22:01 55.4 °F 44.6 °F 30.04 in SSW 1.0 mph 3.0 mph 67 % 0.00 in
22:06 55.2 °F 44.4 °F 30.04 in SSW 2.0 mph 3.0 mph 67 % 0.00 in
22:11 55.2 °F 44.4 °F 30.04 in SSW 1.0 mph 3.0 mph 67 % 0.00 in
22:17 55.0 °F 44.6 °F 30.04 in South 1.0 mph 2.0 mph 68 % 0.00 in
22:21 55.0 °F 44.6 °F 30.04 in SE 1.0 mph 3.0 mph 68 % 0.00 in
22:27 55.0 °F 44.6 °F 30.04 in SW 1.0 mph 3.0 mph 68 % 0.00 in
22:32 55.0 °F 44.6 °F 30.03 in SSE 1.0 mph 3.0 mph 68 % 0.00 in
22:37 55.0 °F 44.6 °F 30.03 in Calm   3.0 mph 68 % 0.00 in
22:42 54.9 °F 44.4 °F 30.03 in SSE 2.0 mph 3.0 mph 68 % 0.00 in
22:47 54.7 °F 44.8 °F 30.03 in South 1.0 mph 3.0 mph 69 % 0.00 in
22:52 54.7 °F 44.8 °F 30.03 in South 2.0 mph 3.0 mph 69 % 0.00 in
22:57 54.5 °F 44.6 °F 30.03 in Calm   3.0 mph 69 % 0.00 in
23:02 54.3 °F 44.8 °F 30.03 in SSE 2.0 mph 2.0 mph 70 % 0.00 in
23:07 54.3 °F 44.8 °F 30.03 in SSE 1.0 mph 3.0 mph 70 % 0.00 in
23:12 54.1 °F 44.6 °F 30.03 in SSW 1.0 mph 3.0 mph 70 % 0.00 in
23:17 54.1 °F 44.6 °F 30.03 in South 1.0 mph 3.0 mph 70 % 0.00 in
23:22 54.0 °F 44.4 °F 30.03 in Calm   2.0 mph 70 % 0.00 in
23:27 53.8 °F 44.6 °F 30.02 in SSE 1.0 mph 2.0 mph 71 % 0.00 in
23:32 53.6 °F 44.4 °F 30.02 in Calm   1.0 mph 71 % 0.00 in
23:37 53.4 °F 44.2 °F 30.02 in Calm   1.0 mph 71 % 0.00 in
23:42 53.2 °F 44.4 °F 30.02 in Calm   1.0 mph 72 % 0.00 in
23:47 52.9 °F 44.1 °F 30.02 in Calm   1.0 mph 72 % 0.00 in
23:52 52.5 °F 43.7 °F 30.02 in Calm   1.0 mph 72 % 0.00 in
23:57 52.0 °F 43.5 °F 30.02 in Calm   1.0 mph 73 % 0.00 in
Spring, Texas: Villages of Bridgestone
Compliments of Weather Underground - 2.75 mb

Script developed by  Jim McMurry - jmcmurry@mwt.net Adapted for the template by  Wim van der Kuil - Leuven-Template.eu

You find our weather info also at:

UK Metoffice

WeatherCloud

Weather Underground

Mid-South Weather Network

AWEKAS

Citizen Weather Observer Program (CWOP)

HAMweather, WeatherForYou, PWS Weather

Equipment we use:

Weather-station
Davis Vantage Vue

Weather-program
Meteohub

Weather-server
Debian 7.9 x86 (Guest)

Provider
DreamHost

Davis Vantage Vue

Meteohub

Debian 7.9 x86 (Guest)

DreamHost